Year,Month,Day,Hour,Minute,Value (Times are PST for temperature in C)
2016,08,19,00,00,19.70
2016,08,19,00,01,19.70
2016,08,19,00,02,19.70
2016,08,19,00,03,19.70
2016,08,19,00,04,19.80
2016,08,19,00,05,19.80
2016,08,19,00,06,19.90
2016,08,19,00,07,20.00
2016,08,19,00,08,20.10
2016,08,19,00,09,20.20
2016,08,19,00,10,20.30
2016,08,19,00,11,20.50
2016,08,19,00,12,20.70
2016,08,19,00,13,20.90
2016,08,19,00,14,21.20
2016,08,19,00,15,21.70
2016,08,19,00,16,22.00
2016,08,19,00,17,22.40
2016,08,19,00,18,22.60
2016,08,19,00,19,22.90
2016,08,19,00,20,23.10
2016,08,19,00,21,23.40
2016,08,19,00,22,23.70
2016,08,19,00,23,24.00
2016,08,19,00,24,24.30
2016,08,19,00,25,24.50
2016,08,19,00,26,24.70
2016,08,19,00,27,24.90
2016,08,19,00,28,25.00
2016,08,19,00,29,25.20
2016,08,19,00,30,25.30
2016,08,19,00,31,25.40
2016,08,19,00,32,25.40
2016,08,19,00,33,25.50
2016,08,19,00,34,25.60
2016,08,19,00,35,25.60
2016,08,19,00,36,25.70
2016,08,19,00,37,25.70
2016,08,19,00,38,25.70
2016,08,19,00,39,25.70
2016,08,19,00,40,25.70
2016,08,19,00,41,25.70
2016,08,19,00,42,25.70
2016,08,19,00,43,25.70
2016,08,19,00,44,25.70
2016,08,19,00,45,25.70
2016,08,19,00,46,25.70
2016,08,19,00,47,25.70
2016,08,19,00,48,25.80
2016,08,19,00,49,25.80
2016,08,19,00,50,25.80
2016,08,19,00,51,25.80
2016,08,19,00,52,25.80
2016,08,19,00,53,25.80
2016,08,19,00,54,25.80
2016,08,19,00,55,25.80
2016,08,19,00,56,25.80
2016,08,19,00,57,25.80
2016,08,19,00,58,25.70
2016,08,19,00,59,25.70
2016,08,19,01,00,25.80
2016,08,19,01,01,25.80
2016,08,19,01,02,25.80
2016,08,19,01,03,25.90
2016,08,19,01,04,25.90
2016,08,19,01,05,25.90
2016,08,19,01,06,25.90
2016,08,19,01,07,26.00
2016,08,19,01,08,26.00
2016,08,19,01,09,26.00
2016,08,19,01,10,26.00
2016,08,19,01,11,26.10
2016,08,19,01,12,26.10
2016,08,19,01,13,26.20
2016,08,19,01,14,26.30
2016,08,19,01,15,26.30
2016,08,19,01,16,26.40
2016,08,19,01,17,26.40
2016,08,19,01,18,26.50
2016,08,19,01,19,26.60
2016,08,19,01,20,26.60
2016,08,19,01,21,26.60
2016,08,19,01,22,26.60
2016,08,19,01,23,26.70
2016,08,19,01,24,26.70
2016,08,19,01,25,26.70
2016,08,19,01,26,26.70
2016,08,19,01,27,26.80
2016,08,19,01,28,26.80
2016,08,19,01,29,26.80
2016,08,19,01,30,26.90
2016,08,19,01,31,26.90
2016,08,19,01,32,26.90
2016,08,19,01,33,27.00
2016,08,19,01,34,27.00
2016,08,19,01,35,27.10
2016,08,19,01,36,27.10
2016,08,19,01,37,27.10
2016,08,19,01,38,27.10
2016,08,19,01,39,27.10
2016,08,19,01,40,27.10
2016,08,19,01,41,27.20
2016,08,19,01,42,27.20
2016,08,19,01,43,27.20
2016,08,19,01,44,27.20
2016,08,19,01,45,27.20
2016,08,19,01,46,27.20
2016,08,19,01,47,27.20
2016,08,19,01,48,27.20
2016,08,19,01,49,27.10
2016,08,19,01,50,27.10
2016,08,19,01,51,27.10
2016,08,19,01,52,27.10
2016,08,19,01,53,27.10
2016,08,19,01,54,27.00
2016,08,19,01,55,27.00
2016,08,19,01,56,26.90
2016,08,19,01,57,26.90
2016,08,19,01,58,26.80
2016,08,19,01,59,26.80
2016,08,19,02,00,26.80
2016,08,19,02,01,26.70
2016,08,19,02,02,26.70
2016,08,19,02,03,26.70
2016,08,19,02,04,26.60
2016,08,19,02,05,26.60
2016,08,19,02,06,26.60
2016,08,19,02,07,26.60
2016,08,19,02,08,26.60
2016,08,19,02,09,26.60
2016,08,19,02,10,26.60
2016,08,19,02,11,26.60
2016,08,19,02,12,26.50
2016,08,19,02,13,26.50
2016,08,19,02,14,26.50
2016,08,19,02,15,26.50
2016,08,19,02,16,26.50
2016,08,19,02,17,26.40
2016,08,19,02,18,26.40
2016,08,19,02,19,26.40
2016,08,19,02,20,26.40
2016,08,19,02,21,26.30
2016,08,19,02,22,26.30
2016,08,19,02,23,26.20
2016,08,19,02,24,26.20
2016,08,19,02,25,26.20
2016,08,19,02,26,26.20
2016,08,19,02,27,26.10
2016,08,19,02,28,26.10
2016,08,19,02,29,26.10
2016,08,19,02,30,26.10
2016,08,19,02,31,26.10
2016,08,19,02,32,26.10
2016,08,19,02,33,26.10
2016,08,19,02,34,26.10
2016,08,19,02,35,26.10
2016,08,19,02,36,26.10
2016,08,19,02,37,26.10
2016,08,19,02,38,26.10
2016,08,19,02,39,26.10
2016,08,19,02,40,26.10
2016,08,19,02,41,26.00
2016,08,19,02,42,26.00
2016,08,19,02,43,25.90
2016,08,19,02,44,25.90
2016,08,19,02,45,25.90
2016,08,19,02,46,25.80
2016,08,19,02,47,25.80
2016,08,19,02,48,25.70
2016,08,19,02,49,25.70
2016,08,19,02,50,25.70
2016,08,19,02,51,25.70
2016,08,19,02,52,25.60
2016,08,19,02,53,25.60
2016,08,19,02,54,25.50
2016,08,19,02,55,25.50
2016,08,19,02,56,25.40
2016,08,19,02,57,25.40
2016,08,19,02,58,25.40
2016,08,19,02,59,25.40
2016,08,19,03,00,25.40
2016,08,19,03,01,25.30
2016,08,19,03,02,25.30
2016,08,19,03,03,25.40
2016,08,19,03,04,25.40
2016,08,19,03,05,25.40
2016,08,19,03,06,25.40
2016,08,19,03,07,25.40
2016,08,19,03,08,25.40
2016,08,19,03,09,25.40
2016,08,19,03,10,25.50
2016,08,19,03,11,25.50
2016,08,19,03,12,25.40
2016,08,19,03,13,25.40
2016,08,19,03,14,25.40
2016,08,19,03,15,25.40
2016,08,19,03,16,25.30
2016,08,19,03,17,25.30
2016,08,19,03,18,25.20
2016,08,19,03,19,25.20
2016,08,19,03,20,25.20
2016,08,19,03,21,25.10
2016,08,19,03,22,25.10
2016,08,19,03,23,25.10
2016,08,19,03,24,25.00
2016,08,19,03,25,25.00
2016,08,19,03,26,25.00
2016,08,19,03,27,24.90
2016,08,19,03,28,24.90
2016,08,19,03,29,24.80
2016,08,19,03,30,24.80
2016,08,19,03,31,24.70
2016,08,19,03,32,24.70
2016,08,19,03,33,24.60
2016,08,19,03,34,24.60
2016,08,19,03,35,24.60
2016,08,19,03,36,24.50
2016,08,19,03,37,24.50
2016,08,19,03,38,24.50
2016,08,19,03,39,24.50
2016,08,19,03,40,24.50
2016,08,19,03,41,24.50
2016,08,19,03,42,24.50
2016,08,19,03,43,24.40
2016,08,19,03,44,24.40
2016,08,19,03,45,24.30
2016,08,19,03,46,24.20
2016,08,19,03,47,24.10
2016,08,19,03,48,24.00
2016,08,19,03,49,23.80
2016,08,19,03,50,23.70
2016,08,19,03,51,23.60
2016,08,19,03,52,23.50
2016,08,19,03,53,23.40
2016,08,19,03,54,23.30
2016,08,19,03,55,23.20
2016,08,19,03,56,23.20
2016,08,19,03,57,23.10
2016,08,19,03,58,23.10
2016,08,19,03,59,23.00
2016,08,19,04,00,23.00
2016,08,19,04,01,22.90
2016,08,19,04,02,22.90
2016,08,19,04,03,22.80
2016,08,19,04,04,22.80
2016,08,19,04,05,22.80
2016,08,19,04,06,22.70
2016,08,19,04,07,22.70
2016,08,19,04,08,22.60
2016,08,19,04,09,22.50
2016,08,19,04,10,22.40
2016,08,19,04,11,22.30
2016,08,19,04,12,22.20
2016,08,19,04,13,22.20
2016,08,19,04,14,22.10
2016,08,19,04,15,22.10
2016,08,19,04,16,22.10
2016,08,19,04,17,22.00
2016,08,19,04,18,22.00
2016,08,19,04,19,21.90
2016,08,19,04,20,21.90
2016,08,19,04,21,21.80
2016,08,19,04,22,21.80
2016,08,19,04,23,21.70
2016,08,19,04,24,21.70
2016,08,19,04,25,21.60
2016,08,19,04,26,21.60
2016,08,19,04,27,21.50
2016,08,19,04,28,21.50
2016,08,19,04,29,21.40
2016,08,19,04,30,21.40
2016,08,19,04,31,21.40
2016,08,19,04,32,21.40
2016,08,19,04,33,21.30
2016,08,19,04,34,21.30
2016,08,19,04,35,21.30
2016,08,19,04,36,21.30
2016,08,19,04,37,21.30
2016,08,19,04,38,21.20
2016,08,19,04,39,21.20
2016,08,19,04,40,21.20
2016,08,19,04,41,21.30
2016,08,19,04,42,21.30
2016,08,19,04,43,21.30
2016,08,19,04,44,21.30
2016,08,19,04,45,21.30
2016,08,19,04,46,21.30
2016,08,19,04,47,21.20
2016,08,19,04,48,21.20
2016,08,19,04,49,21.20
2016,08,19,04,50,21.20
2016,08,19,04,51,21.10
2016,08,19,04,52,21.10
2016,08,19,04,53,21.10
2016,08,19,04,54,21.10
2016,08,19,04,55,21.00
2016,08,19,04,56,21.00
2016,08,19,04,57,21.00
2016,08,19,04,58,21.00
2016,08,19,04,59,20.90
2016,08,19,05,00,20.90
2016,08,19,05,01,20.90
2016,08,19,05,02,20.90
2016,08,19,05,03,20.90
2016,08,19,05,04,20.90
2016,08,19,05,05,20.90
2016,08,19,05,06,20.90
2016,08,19,05,07,20.90
2016,08,19,05,08,20.90
2016,08,19,05,09,20.80
2016,08,19,05,10,20.80
2016,08,19,05,11,20.80
2016,08,19,05,12,20.80
2016,08,19,05,13,20.90
2016,08,19,05,14,20.90
2016,08,19,05,15,21.00
2016,08,19,05,16,21.00
2016,08,19,05,17,21.00
2016,08,19,05,18,21.10
2016,08,19,05,19,21.10
2016,08,19,05,20,21.10
2016,08,19,05,21,21.10
2016,08,19,05,22,21.00
2016,08,19,05,23,21.00
2016,08,19,05,24,21.00
2016,08,19,05,25,20.90
2016,08,19,05,26,20.90
2016,08,19,05,27,20.90
2016,08,19,05,28,20.90
2016,08,19,05,29,20.80
2016,08,19,05,30,20.80
2016,08,19,05,31,20.80
2016,08,19,05,32,20.80
2016,08,19,05,33,20.80
2016,08,19,05,34,20.80
2016,08,19,05,35,20.80
2016,08,19,05,36,20.70
2016,08,19,05,37,20.70
2016,08,19,05,38,20.70
2016,08,19,05,39,20.70
2016,08,19,05,40,20.70
2016,08,19,05,41,20.80
2016,08,19,05,42,20.80
2016,08,19,05,43,20.80
2016,08,19,05,44,20.80
2016,08,19,05,45,20.90
2016,08,19,05,46,20.90
2016,08,19,05,47,20.90
2016,08,19,05,48,21.00
2016,08,19,05,49,21.10
2016,08,19,05,50,21.10
2016,08,19,05,51,21.20
2016,08,19,05,52,21.20
2016,08,19,05,53,21.20
2016,08,19,05,54,21.20
2016,08,19,05,55,21.20
2016,08,19,05,56,21.20
2016,08,19,05,57,21.10
2016,08,19,05,58,21.10
2016,08,19,05,59,21.10
2016,08,19,06,00,21.00
2016,08,19,06,01,20.90
2016,08,19,06,02,20.90
2016,08,19,06,03,20.90
2016,08,19,06,04,20.80
2016,08,19,06,05,20.80
2016,08,19,06,06,20.80
2016,08,19,06,07,20.80
2016,08,19,06,08,20.80
2016,08,19,06,09,20.80
2016,08,19,06,10,20.80
2016,08,19,06,11,20.80
2016,08,19,06,12,20.90
2016,08,19,06,13,20.90
2016,08,19,06,14,21.00
2016,08,19,06,15,21.10
2016,08,19,06,16,21.10
2016,08,19,06,17,21.10
2016,08,19,06,18,21.10
2016,08,19,06,19,21.10
2016,08,19,06,20,21.10
2016,08,19,06,21,21.10
2016,08,19,06,22,21.10
2016,08,19,06,23,21.10
2016,08,19,06,24,21.10
2016,08,19,06,25,21.10
2016,08,19,06,26,21.10
2016,08,19,06,27,21.10
2016,08,19,06,28,21.10
2016,08,19,06,29,21.20
2016,08,19,06,30,21.20
2016,08,19,06,31,21.30
2016,08,19,06,32,21.40
2016,08,19,06,33,21.40
2016,08,19,06,34,21.40
2016,08,19,06,35,21.40
2016,08,19,06,36,21.40
2016,08,19,06,37,21.40
2016,08,19,06,38,21.40
2016,08,19,06,39,21.40
2016,08,19,06,40,21.40
2016,08,19,06,41,21.30
2016,08,19,06,42,21.30
2016,08,19,06,43,21.30
2016,08,19,06,44,21.30
2016,08,19,06,45,21.30
2016,08,19,06,46,21.20
2016,08,19,06,47,21.20
2016,08,19,06,48,21.20
2016,08,19,06,49,21.20
2016,08,19,06,50,21.20
2016,08,19,06,51,21.20
2016,08,19,06,52,21.20
2016,08,19,06,53,21.10
2016,08,19,06,54,21.00
2016,08,19,06,55,20.90
2016,08,19,06,56,20.80
2016,08,19,06,57,20.80
2016,08,19,06,58,20.70
2016,08,19,06,59,20.60
2016,08,19,07,00,20.60
2016,08,19,07,01,20.50
2016,08,19,07,02,20.50
2016,08,19,07,03,20.40
2016,08,19,07,04,20.40
2016,08,19,07,05,20.40
2016,08,19,07,06,20.40
2016,08,19,07,07,20.40
2016,08,19,07,08,20.40
2016,08,19,07,09,20.40
2016,08,19,07,10,20.50
2016,08,19,07,11,20.50
2016,08,19,07,12,20.60
2016,08,19,07,13,20.60
2016,08,19,07,14,20.70
2016,08,19,07,15,20.70
2016,08,19,07,16,20.80
2016,08,19,07,17,20.80
2016,08,19,07,18,20.90
2016,08,19,07,19,20.90
2016,08,19,07,20,21.00
2016,08,19,07,21,21.10
2016,08,19,07,22,21.20
2016,08,19,07,23,21.20
2016,08,19,07,24,21.30
2016,08,19,07,25,21.30
2016,08,19,07,26,21.40
2016,08,19,07,27,21.50
2016,08,19,07,28,21.50
2016,08,19,07,29,21.60
2016,08,19,07,30,21.70
2016,08,19,07,31,21.70
2016,08,19,07,32,21.70
2016,08,19,07,33,21.70
2016,08,19,07,34,21.80
2016,08,19,07,35,21.80
2016,08,19,07,36,21.90
2016,08,19,07,37,21.90
2016,08,19,07,38,21.90
2016,08,19,07,39,22.00
2016,08,19,07,40,22.00
2016,08,19,07,41,22.10
2016,08,19,07,42,22.10
2016,08,19,07,43,22.10
2016,08,19,07,44,22.10
2016,08,19,07,45,22.20
2016,08,19,07,46,22.20
2016,08,19,07,47,22.20
2016,08,19,07,48,22.30
2016,08,19,07,49,22.30
2016,08,19,07,50,22.40
2016,08,19,07,51,22.50
2016,08,19,07,52,22.50
2016,08,19,07,53,22.60
2016,08,19,07,54,22.70
2016,08,19,07,55,22.80
2016,08,19,07,56,22.80
2016,08,19,07,57,22.90
2016,08,19,07,58,23.00
2016,08,19,07,59,23.00
2016,08,19,08,00,23.10
2016,08,19,08,01,23.10
2016,08,19,08,02,23.20
2016,08,19,08,03,23.20
2016,08,19,08,04,23.20
2016,08,19,08,05,23.20
2016,08,19,08,06,23.30
2016,08,19,08,07,23.30
2016,08,19,08,08,23.30
2016,08,19,08,09,23.30
2016,08,19,08,10,23.40
2016,08,19,08,11,23.40
2016,08,19,08,12,23.40
2016,08,19,08,13,23.40
2016,08,19,08,14,23.50
2016,08,19,08,15,23.50
2016,08,19,08,16,23.60
2016,08,19,08,17,23.60
2016,08,19,08,18,23.60
2016,08,19,08,19,23.70
2016,08,19,08,20,23.70
2016,08,19,08,21,23.70
2016,08,19,08,22,23.70
2016,08,19,08,23,23.70
2016,08,19,08,24,23.70
2016,08,19,08,25,23.70
2016,08,19,08,26,23.80
2016,08,19,08,27,23.80
2016,08,19,08,28,23.80
2016,08,19,08,29,23.80
2016,08,19,08,30,23.80
2016,08,19,08,31,23.90
2016,08,19,08,32,23.90
2016,08,19,08,33,23.90
2016,08,19,08,34,24.00
2016,08,19,08,35,24.10
2016,08,19,08,36,24.10
2016,08,19,08,37,24.10
2016,08,19,08,38,24.10
2016,08,19,08,39,24.10
2016,08,19,08,40,24.20
2016,08,19,08,41,24.20
2016,08,19,08,42,24.20
2016,08,19,08,43,24.20
2016,08,19,08,44,24.20
2016,08,19,08,45,24.30
2016,08,19,08,46,24.30
2016,08,19,08,47,24.30
2016,08,19,08,48,24.30
2016,08,19,08,49,24.30
2016,08,19,08,50,24.40
2016,08,19,08,51,24.40
2016,08,19,08,52,24.40
2016,08,19,08,53,24.50
2016,08,19,08,54,24.50
2016,08,19,08,55,24.60
2016,08,19,08,56,24.60
2016,08,19,08,57,24.70
2016,08,19,08,58,24.70
2016,08,19,08,59,24.80
2016,08,19,09,00,24.80
2016,08,19,09,01,24.80
2016,08,19,09,02,24.80
2016,08,19,09,03,24.90
2016,08,19,09,04,24.90
2016,08,19,09,05,24.90
2016,08,19,09,06,24.90
2016,08,19,09,07,24.90
2016,08,19,09,08,24.90
2016,08,19,09,09,24.90
2016,08,19,09,10,24.90
2016,08,19,09,11,24.90
2016,08,19,09,12,24.90
2016,08,19,09,13,25.00
2016,08,19,09,14,25.00
2016,08,19,09,15,25.10
2016,08,19,09,16,25.10
2016,08,19,09,17,25.20
2016,08,19,09,18,25.20
2016,08,19,09,19,25.30
2016,08,19,09,20,25.30
2016,08,19,09,21,25.30
2016,08,19,09,22,25.40
2016,08,19,09,23,25.40
2016,08,19,09,24,25.50
2016,08,19,09,25,25.50
2016,08,19,09,26,25.60
2016,08,19,09,27,25.60
2016,08,19,09,28,25.70
2016,08,19,09,29,25.70
2016,08,19,09,30,25.70
2016,08,19,09,31,25.70
2016,08,19,09,32,25.70
2016,08,19,09,33,25.70
2016,08,19,09,34,25.80
2016,08,19,09,35,25.80
2016,08,19,09,36,25.80
2016,08,19,09,37,25.80
2016,08,19,09,38,25.80
2016,08,19,09,39,25.80
2016,08,19,09,40,25.90
2016,08,19,09,41,25.80
2016,08,19,09,42,25.80
2016,08,19,09,43,25.90
2016,08,19,09,44,25.90
2016,08,19,09,45,25.90
2016,08,19,09,46,25.90
2016,08,19,09,47,25.90
2016,08,19,09,48,25.90
2016,08,19,09,49,25.90
2016,08,19,09,50,25.90
2016,08,19,09,51,25.90
2016,08,19,09,52,26.00
2016,08,19,09,53,26.00
2016,08,19,09,54,26.10
2016,08,19,09,55,26.10
2016,08,19,09,56,26.10
2016,08,19,09,57,26.10
2016,08,19,09,58,26.10
2016,08,19,09,59,26.20
2016,08,19,10,00,26.20
2016,08,19,10,01,26.20
2016,08,19,10,02,26.20
2016,08,19,10,03,26.20
2016,08,19,10,04,26.20
2016,08,19,10,05,26.10
2016,08,19,10,06,26.10
2016,08,19,10,07,26.10
2016,08,19,10,08,26.10
2016,08,19,10,09,26.10
2016,08,19,10,10,26.20
2016,08,19,10,11,26.20
2016,08,19,10,12,26.20
2016,08,19,10,13,26.20
2016,08,19,10,14,26.20
2016,08,19,10,15,26.30
2016,08,19,10,16,26.30
2016,08,19,10,17,26.40
2016,08,19,10,18,26.40
2016,08,19,10,19,26.40
2016,08,19,10,20,26.40
2016,08,19,10,21,26.40
2016,08,19,10,22,26.40
2016,08,19,10,23,26.40
2016,08,19,10,24,26.50
2016,08,19,10,25,26.50
2016,08,19,10,26,26.60
2016,08,19,10,27,26.60
2016,08,19,10,28,26.60
2016,08,19,10,29,26.60
2016,08,19,10,30,26.70
2016,08,19,10,31,26.70
2016,08,19,10,32,26.70
2016,08,19,10,33,26.70
2016,08,19,10,34,26.80
2016,08,19,10,35,26.80
2016,08,19,10,36,26.80
2016,08,19,10,37,26.80
2016,08,19,10,38,26.90
2016,08,19,10,39,26.90
2016,08,19,10,40,26.90
2016,08,19,10,41,27.00
2016,08,19,10,42,27.00
2016,08,19,10,43,27.00
2016,08,19,10,44,27.00
2016,08,19,10,45,27.10
2016,08,19,10,46,27.10
2016,08,19,10,47,27.10
2016,08,19,10,48,27.10
2016,08,19,10,49,27.10
2016,08,19,10,50,27.10
2016,08,19,10,51,27.10
2016,08,19,10,52,27.00
2016,08,19,10,53,27.10
2016,08,19,10,54,27.10
2016,08,19,10,55,27.10
2016,08,19,10,56,27.10
2016,08,19,10,57,27.00
2016,08,19,10,58,27.00
2016,08,19,10,59,26.90
2016,08,19,11,00,26.90
2016,08,19,11,01,26.90
2016,08,19,11,02,26.90
2016,08,19,11,03,26.80
2016,08,19,11,04,26.80
2016,08,19,11,05,26.90
2016,08,19,11,06,26.90
2016,08,19,11,07,26.90
2016,08,19,11,08,27.00
2016,08,19,11,09,27.00
2016,08,19,11,10,27.10
2016,08,19,11,11,27.10
2016,08,19,11,12,27.10
2016,08,19,11,13,27.10
2016,08,19,11,14,27.10
2016,08,19,11,15,27.10
2016,08,19,11,16,27.00
2016,08,19,11,17,27.00
2016,08,19,11,18,26.90
2016,08,19,11,19,26.90
2016,08,19,11,20,26.90
2016,08,19,11,21,26.90
2016,08,19,11,22,26.90
2016,08,19,11,23,26.90
2016,08,19,11,24,26.90
2016,08,19,11,25,27.00
2016,08,19,11,26,27.00
2016,08,19,11,27,27.10
2016,08,19,11,28,27.10
2016,08,19,11,29,27.10
2016,08,19,11,30,27.20
2016,08,19,11,31,27.20
2016,08,19,11,32,27.20
2016,08,19,11,33,27.20
2016,08,19,11,34,27.20
2016,08,19,11,35,27.20
2016,08,19,11,36,27.20
2016,08,19,11,37,27.10
2016,08,19,11,38,27.10
2016,08,19,11,39,27.10
2016,08,19,11,40,27.20
2016,08,19,11,41,27.10
2016,08,19,11,42,27.10
2016,08,19,11,43,27.10
2016,08,19,11,44,27.20
2016,08,19,11,45,27.20
2016,08,19,11,46,27.20
2016,08,19,11,47,27.20
2016,08,19,11,48,27.20
2016,08,19,11,49,27.20
2016,08,19,11,50,27.10
2016,08,19,11,51,27.10
2016,08,19,11,52,27.00
2016,08,19,11,53,27.00
2016,08,19,11,54,27.00
2016,08,19,11,55,27.10
2016,08,19,11,56,27.10
2016,08,19,11,57,27.10
2016,08,19,11,58,27.10
2016,08,19,11,59,27.10
2016,08,19,12,00,27.10
2016,08,19,12,01,27.10
2016,08,19,12,02,27.20
2016,08,19,12,03,27.20
2016,08,19,12,04,27.20
2016,08,19,12,05,27.20
2016,08,19,12,06,27.30
2016,08,19,12,07,27.30
2016,08,19,12,08,27.30
2016,08,19,12,09,27.40
2016,08,19,12,10,27.40
2016,08,19,12,11,27.40
2016,08,19,12,12,27.40
2016,08,19,12,13,27.50
2016,08,19,12,14,27.50
2016,08,19,12,15,27.60
2016,08,19,12,16,27.60
2016,08,19,12,17,27.60
2016,08,19,12,18,27.50
2016,08,19,12,19,27.50
2016,08,19,12,20,27.50
2016,08,19,12,21,27.50
2016,08,19,12,22,27.50
2016,08,19,12,23,27.50
2016,08,19,12,24,27.60
2016,08,19,12,25,27.60
2016,08,19,12,26,27.60
2016,08,19,12,27,27.60
2016,08,19,12,28,27.70
2016,08,19,12,29,27.80
2016,08,19,12,30,27.80
2016,08,19,12,31,27.80
2016,08,19,12,32,27.80
2016,08,19,12,33,27.70
2016,08,19,12,34,27.80
2016,08,19,12,35,27.80
2016,08,19,12,36,27.90
2016,08,19,12,37,28.00
2016,08,19,12,38,28.10
2016,08,19,12,39,28.20
2016,08,19,12,40,28.20
2016,08,19,12,41,28.30
2016,08,19,12,42,28.30
2016,08,19,12,43,28.30
2016,08,19,12,44,28.20
2016,08,19,12,45,28.10
2016,08,19,12,46,28.10
2016,08,19,12,47,28.10
2016,08,19,12,48,28.10
2016,08,19,12,49,28.20
2016,08,19,12,50,28.20
2016,08,19,12,51,28.30
2016,08,19,12,52,28.30
2016,08,19,12,53,28.40
2016,08,19,12,54,28.40
2016,08,19,12,55,28.40
2016,08,19,12,56,28.40
2016,08,19,12,57,28.40
2016,08,19,12,58,28.40
2016,08,19,12,59,28.30
2016,08,19,13,00,28.30
2016,08,19,13,01,28.30
2016,08,19,13,02,28.20
2016,08,19,13,03,28.20
2016,08,19,13,04,28.20
2016,08,19,13,05,28.20
2016,08,19,13,06,28.10
2016,08,19,13,07,28.20
2016,08,19,13,08,28.20
2016,08,19,13,09,28.20
2016,08,19,13,10,28.30
2016,08,19,13,11,28.30
2016,08,19,13,12,28.30
2016,08,19,13,13,28.30
2016,08,19,13,14,28.30
2016,08,19,13,15,28.30
2016,08,19,13,16,28.30
2016,08,19,13,17,28.30
2016,08,19,13,18,28.30
2016,08,19,13,19,28.30
2016,08,19,13,20,28.30
2016,08,19,13,21,28.30
2016,08,19,13,22,28.40
2016,08,19,13,23,28.40
2016,08,19,13,24,28.40
2016,08,19,13,25,28.40
2016,08,19,13,26,28.40
2016,08,19,13,27,28.40
2016,08,19,13,28,28.40
2016,08,19,13,29,28.40
2016,08,19,13,30,28.40
2016,08,19,13,31,28.50
2016,08,19,13,32,28.50
2016,08,19,13,33,28.60
2016,08,19,13,34,28.80
2016,08,19,13,35,28.80
2016,08,19,13,36,29.00
2016,08,19,13,37,29.00
2016,08,19,13,38,29.10
2016,08,19,13,39,29.10
2016,08,19,13,40,29.20
2016,08,19,13,41,29.20
2016,08,19,13,42,29.30
2016,08,19,13,43,29.30
2016,08,19,13,44,29.40
2016,08,19,13,45,29.40
2016,08,19,13,46,29.40
2016,08,19,13,47,29.40
2016,08,19,13,48,29.40
2016,08,19,13,49,29.40
2016,08,19,13,50,29.30
2016,08,19,13,51,29.30
2016,08,19,13,52,29.30
2016,08,19,13,53,29.40
2016,08,19,13,54,29.40
2016,08,19,13,55,29.50
2016,08,19,13,56,29.60
2016,08,19,13,57,29.60
2016,08,19,13,58,29.50
2016,08,19,13,59,29.50
2016,08,19,14,00,29.60
2016,08,19,14,01,29.60
2016,08,19,14,02,29.60
2016,08,19,14,03,29.60
2016,08,19,14,04,29.50
2016,08,19,14,05,29.40
2016,08,19,14,06,29.40
2016,08,19,14,07,29.30
2016,08,19,14,08,29.30
2016,08,19,14,09,29.40
2016,08,19,14,10,29.40
2016,08,19,14,11,29.40
2016,08,19,14,12,29.50
2016,08,19,14,13,29.50
2016,08,19,14,14,29.60
2016,08,19,14,15,29.60
2016,08,19,14,16,29.70
2016,08,19,14,17,29.80
2016,08,19,14,18,29.90
2016,08,19,14,19,30.00
2016,08,19,14,20,30.10
2016,08,19,14,21,30.20
2016,08,19,14,22,30.30
2016,08,19,14,23,30.30
2016,08,19,14,24,30.30
2016,08,19,14,25,30.30
2016,08,19,14,26,30.30
2016,08,19,14,27,30.30
2016,08,19,14,28,30.30
2016,08,19,14,29,30.30
2016,08,19,14,30,30.30
2016,08,19,14,31,30.20
2016,08,19,14,32,30.20
2016,08,19,14,33,30.10
2016,08,19,14,34,30.10
2016,08,19,14,35,30.10
2016,08,19,14,36,30.10
2016,08,19,14,37,30.10
2016,08,19,14,38,30.10
2016,08,19,14,39,30.10
2016,08,19,14,40,30.10
2016,08,19,14,41,30.10
2016,08,19,14,42,30.20
2016,08,19,14,43,30.20
2016,08,19,14,44,30.20
2016,08,19,14,45,30.30
2016,08,19,14,46,30.30
2016,08,19,14,47,30.40
2016,08,19,14,48,30.40
2016,08,19,14,49,30.50
2016,08,19,14,50,30.50
2016,08,19,14,51,30.60
2016,08,19,14,52,30.50
2016,08,19,14,53,30.50
2016,08,19,14,54,30.40
2016,08,19,14,55,30.40
2016,08,19,14,56,30.40
2016,08,19,14,57,30.40
2016,08,19,14,58,30.40
2016,08,19,14,59,30.50
2016,08,19,15,00,30.50
2016,08,19,15,01,30.50
2016,08,19,15,02,30.60
2016,08,19,15,03,30.60
2016,08,19,15,04,30.70
2016,08,19,15,05,30.80
2016,08,19,15,06,30.80
2016,08,19,15,07,30.90
2016,08,19,15,08,31.00
2016,08,19,15,09,31.10
2016,08,19,15,10,31.20
2016,08,19,15,11,31.20
2016,08,19,15,12,31.20
2016,08,19,15,13,31.30
2016,08,19,15,14,31.30
2016,08,19,15,15,31.40
2016,08,19,15,16,31.50
2016,08,19,15,17,31.70
2016,08,19,15,18,31.80
2016,08,19,15,19,31.80
2016,08,19,15,20,31.70
2016,08,19,15,21,31.80
2016,08,19,15,22,31.80
2016,08,19,15,23,31.90
2016,08,19,15,24,31.90
2016,08,19,15,25,31.90
2016,08,19,15,26,31.90
2016,08,19,15,27,31.90
2016,08,19,15,28,31.90
2016,08,19,15,29,31.90
2016,08,19,15,30,31.90
2016,08,19,15,31,31.80
2016,08,19,15,32,31.80
2016,08,19,15,33,31.80
2016,08,19,15,34,31.80
2016,08,19,15,35,31.70
2016,08,19,15,36,31.70
2016,08,19,15,37,31.60
2016,08,19,15,38,31.60
2016,08,19,15,39,31.60
2016,08,19,15,40,31.60
2016,08,19,15,41,31.60
2016,08,19,15,42,31.70
2016,08,19,15,43,31.70
2016,08,19,15,44,31.80
2016,08,19,15,45,31.80
2016,08,19,15,46,31.90
2016,08,19,15,47,32.00
2016,08,19,15,48,32.00
2016,08,19,15,49,32.10
2016,08,19,15,50,32.10
2016,08,19,15,51,32.20
2016,08,19,15,52,32.20
2016,08,19,15,53,32.10
2016,08,19,15,54,32.10
2016,08,19,15,55,32.00
2016,08,19,15,56,32.00
2016,08,19,15,57,32.00
2016,08,19,15,58,32.10
2016,08,19,15,59,32.20
2016,08,19,16,00,32.30
2016,08,19,16,01,32.40
2016,08,19,16,02,32.50
2016,08,19,16,03,32.60
2016,08,19,16,04,32.70
2016,08,19,16,05,32.80
2016,08,19,16,06,32.90
2016,08,19,16,07,33.00
2016,08,19,16,08,33.10
2016,08,19,16,09,33.20
2016,08,19,16,10,33.20
2016,08,19,16,11,33.30
2016,08,19,16,12,33.40
2016,08,19,16,13,33.60
2016,08,19,16,14,33.70
2016,08,19,16,15,33.70
2016,08,19,16,16,33.60
2016,08,19,16,17,33.50
2016,08,19,16,18,33.40
2016,08,19,16,19,33.40
2016,08,19,16,20,33.30
2016,08,19,16,21,33.30
2016,08,19,16,22,33.20
2016,08,19,16,23,33.20
2016,08,19,16,24,33.20
2016,08,19,16,25,33.20
2016,08,19,16,26,33.10
2016,08,19,16,27,33.10
2016,08,19,16,28,33.10
2016,08,19,16,29,33.10
2016,08,19,16,30,33.00
2016,08,19,16,31,32.90
2016,08,19,16,32,32.80
2016,08,19,16,33,32.80
2016,08,19,16,34,32.80
2016,08,19,16,35,32.80
2016,08,19,16,36,32.80
2016,08,19,16,37,32.80
2016,08,19,16,38,32.80
2016,08,19,16,39,32.90
2016,08,19,16,40,32.90
2016,08,19,16,41,32.90
2016,08,19,16,42,32.90
2016,08,19,16,43,32.90
2016,08,19,16,44,32.90
2016,08,19,16,45,32.80
2016,08,19,16,46,32.80
2016,08,19,16,47,32.80
2016,08,19,16,48,32.70
2016,08,19,16,49,32.70
2016,08,19,16,50,32.60
2016,08,19,16,51,32.60
2016,08,19,16,52,32.60
2016,08,19,16,53,32.70
2016,08,19,16,54,32.80
2016,08,19,16,55,32.80
2016,08,19,16,56,32.90
2016,08,19,16,57,33.00
2016,08,19,16,58,33.10
2016,08,19,16,59,33.10
2016,08,19,17,00,33.20
2016,08,19,17,01,33.30
2016,08,19,17,02,33.30
2016,08,19,17,03,33.30
2016,08,19,17,04,33.30
2016,08,19,17,05,33.30
2016,08,19,17,06,33.30
2016,08,19,17,07,33.30
2016,08,19,17,08,33.30
2016,08,19,17,09,33.30
2016,08,19,17,10,33.20
2016,08,19,17,11,33.20
2016,08,19,17,12,33.20
2016,08,19,17,13,33.20
2016,08,19,17,14,33.30
2016,08,19,17,15,33.30
2016,08,19,17,16,33.30
2016,08,19,17,17,33.30
2016,08,19,17,18,33.40
2016,08,19,17,19,33.50